This is the latest recevied weather packets stored in our database for station/object KC8SWY-15. If no packets are shown the sender has not sent any weather packets the latest 10 day(s).
| Time | Temp. | Humidity | Pressure | Rain* | Wind** | Luminosity | Snow |
|---|---|---|---|---|---|---|---|
| 1778004269 | 11.11° C | 43% | 1008.6 hPa | 0 mm | - | - | - |
| 1778003969 | 11.11° C | 42% | 1008.6 hPa | 0 mm | - | - | - |
| 1778003669 | 11.11° C | 45% | 1008.5 hPa | 0 mm | - | - | - |
| 1778003369 | 11.67° C | 41% | 1008.5 hPa | 0 mm | - | - | - |
| 1778003069 | 11.67° C | 47% | 1008.3 hPa | 0 mm | - | - | - |
| 1778002769 | 11.67° C | 45% | 1008.4 hPa | 0 mm | - | - | - |
| 1778002469 | 11.67° C | 44% | 1008.5 hPa | 0 mm | - | - | - |
| 1778002169 | 11.67° C | 46% | 1008.3 hPa | 0 mm | - | - | - |
| 1778001869 | 11.11° C | 47% | 1008.3 hPa | 0 mm | - | - | - |
| 1778001569 | 11.11° C | 48% | 1008.4 hPa | 0 mm | - | - | - |
| 1778001269 | 10.56° C | 47% | 1008.2 hPa | 0 mm | - | - | - |
| 1778000969 | 10.56° C | 49% | 1008.3 hPa | 0 mm | - | - | - |
| 1778000669 | 10.56° C | 49% | 1008.3 hPa | 0 mm | - | - | - |
| 1778000369 | 10.56° C | 49% | 1008.2 hPa | 0 mm | - | - | - |
| 1778000069 | 10° C | 48% | 1008.1 hPa | 0 mm | - | - | - |
| 1777999769 | 10.56° C | 49% | 1008 hPa | 0 mm | - | - | - |
| 1777999469 | 10.56° C | 55% | 1007.8 hPa | 0 mm | - | - | - |
| 1777999169 | 10° C | 53% | 1008 hPa | 0 mm | - | - | - |
| 1777998869 | 10° C | 63% | 1007.9 hPa | 0 mm | - | - | - |
| 1777998569 | 9.44° C | 64% | 1007.8 hPa | 0 mm | - | - | - |
| 1777998269 | 9.44° C | 66% | 1008 hPa | 0 mm | - | - | - |
| 1777997969 | 9.44° C | 67% | 1007.9 hPa | 0 mm | - | - | - |
| 1777997669 | 8.89° C | 67% | 1008 hPa | 0 mm | - | - | - |
| 1777997369 | 8.89° C | 67% | 1008 hPa | 0 mm | - | - | - |
| 1777997069 | 8.89° C | 69% | 1008.1 hPa | 0 mm | - | - | - |
* Rain latest hour (hover to see other rain measurements)
** Current wind speed in m/s (hover to see current wind gust speed)